HARMAJA Weather Reports


Display with metric or nautical units.
time (UTC)temp
F
wind
direction
speed
MPH
gust
MPH
rain 1hr
in
rain 24hr
in
rain mn
in
humidity
%
barometer
mb
20260906042123 52 331 20.0 24.0 0.00 0.00 0.00 88 1004.2
20260906040452 52 327 21.0 28.0 0.00 0.00 0.00 90 1003.8
20260906032453 52 320 20.0 23.0 0.00 0.00 0.00 90 1003.3
20260906030453 52 323 19.0 24.0 0.00 0.00 0.00 90 1003.0
20260906024453 52 327 20.0 25.0 0.00 0.00 0.00 89 1002.8
20260906022453 52 331 19.0 22.0 0.00 0.00 0.00 90 1002.6
20260906020452 52 334 19.0 23.0 0.00 0.00 0.00 91 1002.4
20260906014454 52 330 19.0 24.0 0.00 0.00 0.00 91 1002.1
20260906012453 53 324 18.0 22.0 0.00 0.00 0.00 91 1002.0
20260906010453 52 330 20.0 24.0 0.00 0.00 0.00 89 1001.8
20260906002453 53 330 19.0 23.0 0.00 0.00 0.00 89 1001.4
20260906000452 53 330 19.0 24.0 0.00 0.00 0.00 89 1001.2
20260905234452 53 330 20.0 23.0 0.00 0.00 0.00 90 1001.0
20260905232452 54 334 18.0 21.0 0.00 0.00 0.00 90 1000.9
20260905230452 54 332 17.0 20.0 0.00 0.00 0.00 89 1000.7
20260905224122 54 333 19.0 21.0 0.00 0.00 0.00 88 1000.5
20260905222451 55 333 19.0 21.0 0.00 0.00 0.00 89 1000.3
20260905220452 55 333 19.0 21.0 0.00 0.00 0.00 90 1000.2
20260905214452 56 332 17.0 19.0 0.00 0.00 0.00 88 1000.0
20260905212453 56 334 17.0 20.0 0.00 0.00 0.00 85 999.9
20260905210452 56 334 18.0 21.0 0.00 0.00 0.00 84 999.7
20260905202452 57 334 17.0 19.0 0.00 0.00 0.00 83 999.4
20260905200453 58 327 16.0 19.0 0.00 0.00 0.00 81 999.2
20260905194452 59 319 17.0 20.0 0.00 0.00 0.00 78 999.0
20260905192452 60 316 16.0 20.0 0.00 0.00 0.00 76 998.8
20260905190451 60 323 17.0 22.0 0.00 0.00 0.00 75 998.7
20260905184452 60 314 15.0 19.0 0.00 0.00 0.00 71 998.6
20260905182451 60 306 13.0 17.0 0.00 0.00 0.00 73 998.5
20260905180449 60 304 10.0 12.0 0.00 0.00 0.00 74 998.4
20260905174120 61 310 11.0 12.0 0.00 0.00 0.00 72 998.3
20260905172450 61 298 8.0 10.0 0.00 0.00 0.00 69 998.1
20260905170450 61 298 9.0 12.0 0.00 0.00 0.00 67 997.9
20260905162121 61 320 6.0 8.0 0.00 0.00 0.00 68 997.5
20260905160451 61 320 6.0 8.0 0.00 0.00 0.00 72 997.4
20260905154121 61 282 6.0 9.0 0.00 0.00 0.00 70 997.1
20260905152452 62 251 7.0 9.0 0.00 0.00 0.00 69 997.1
20260905150450 61 249 10.0 14.0 0.00 0.00 0.00 74 997.0
20260905144451 61 226 11.0 13.0 0.00 0.00 0.00 71 996.8
20260905134450 64 235 6.0 7.0 0.00 0.00 0.00 61 996.4
20260905132120 61 206 10.0 12.0 0.00 0.00 0.00 72 996.3
20260905130454 61 189 8.0 10.0 0.00 0.00 0.00 73 996.2
20260905122120 59 48 2.0 4.0 0.00 0.00 0.00 79 996.3
20260905120450 59 339 10.0 18.0 0.00 0.00 0.00 79 996.2
20260905112452 62 224 10.0 12.0 0.00 0.00 0.00 69 995.8
20260905110449 62 214 11.0 12.0 0.00 0.00 0.00 71 995.5
20260905104450 61 214 10.0 11.0 0.00 0.00 0.00 72 995.4
20260905102450 61 221 9.0 9.0 0.00 0.00 0.00 76 995.4
20260905100449 61 237 7.0 8.0 0.00 0.00 0.00 74 995.2
20260905094448 61 244 8.0 9.0 0.00 0.00 0.00 74 995.1
20260905092449 62 249 8.0 9.0 0.00 0.00 0.00 73 995.0
20260905090450 60 242 7.0 8.0 0.00 0.00 0.00 78 994.9
20260905084450 60 257 7.0 8.0 0.00 0.00 0.00 76 994.8
20260905082452 59 262 6.0 7.0 0.00 0.00 0.00 79 994.7
20260905080448 58 266 5.0 6.0 0.00 0.00 0.00 81 994.6
20260905074119 58 264 5.0 6.0 0.00 0.00 0.00 85 994.6
20260905072448 57 286 4.0 5.0 0.00 0.00 0.00 89 994.5
20260905070452 57 296 3.0 4.0 0.00 0.00 0.00 89 994.3
20260905064448 56 322 3.0 4.0 0.00 0.00 0.00 91 994.2
20260905062448 56 354 4.0 6.0 0.00 0.00 0.00 92 994.0
20260905060448 56 356 5.0 6.0 0.00 0.00 0.00 92 994.0
20260905054449 55 14 4.0 6.0 0.00 0.00 0.00 94 993.9
20260905052448 55 18 5.0 6.0 0.00 0.00 0.00 93 993.9
20260905050449 56 355 5.0 6.0 0.00 0.00 0.00 94 994.0
20260905044450 56 334 4.0 6.0 0.00 0.00 0.00 93 994.0